[[[{"header":{"parameterUnit":"kt","parameterCategory":2,"dx":1,"dy":1,"la1":30.253999710083008,"la2":30.299108505249023,"lo1":-89.0895004272461,"lo2":-89.04439544677734,"nx":28,"ny":28,"refTime":"2022-09-28T21:00:00:Z","depth":0,"parameterNumber":1,"parameterNumberName":"U-component_of_WINDS"},"data":[-1.5199,-1.5174,-1.5164,-1.5129,-1.5114,-1.5088,-1.5075,-1.5057,-1.504,-1.5006,-1.4984,-1.4969,-1.4946,-1.4916,-1.489,-1.4884,-1.4873,-1.4871,-1.4864,-1.4884,-1.4885,-1.4887,-1.4893,-1.487,-1.487,-1.4845,-1.4845,-1.4845,-1.5212,-1.5197,-1.5177,-1.515,-1.5132,-1.5127,-1.5104,-1.5089,-1.5065,-1.5043,-1.5022,-1.499,-1.4963,-1.494,-1.4912,-1.4897,-1.4893,-1.489,-1.4891,-1.4887,-1.4907,-1.4914,-1.4894,-1.4894,-1.4894,-1.4894,-1.4894,-1.4894,-1.5233,-1.5219,-1.5197,-1.5175,-1.5158,-1.514,-1.5123,-1.5107,-1.5085,-1.5057,-1.5048,-1.502,-1.4995,-1.4956,-1.4939,-1.4916,-1.4916,-1.491,-1.4908,-1.4906,-1.4906,-1.494,-1.491,-1.4911,-1.4911,-1.4911,-1.4911,0,-1.5246,-1.5239,-1.5219,-1.5195,-1.5178,-1.5159,-1.5139,-1.5128,-1.5108,-1.5091,-1.5065,-1.5047,-1.5013,-1.4985,-1.4956,-1.494,-1.4932,-1.493,-1.4926,-1.4929,-1.4936,-1.4931,-1.4964,-1.4931,-1.4931,-1.4931,-1.4932,-1.4932,-1.5265,-1.525,-1.5223,-1.521,-1.5197,-1.5176,-1.5162,-1.5145,-1.513,-1.5102,-1.5089,-1.5062,-1.504,-1.4998,-1.4977,-1.495,-1.4946,-1.4934,-1.4942,-1.4946,-1.4944,-1.4945,-1.4942,-1.4933,-1.4933,-1.4933,-1.4933,0,-1.5277,-1.5262,-1.5235,-1.5209,-1.5202,-1.5186,-1.5163,-1.5147,-1.5133,-1.5109,-1.5102,-1.5079,-1.5053,-1.5034,-1.5,-1.4991,-1.496,-1.4957,-1.4968,-1.4966,-1.4953,-1.4954,-1.4916,-1.491,-1.4935,-1.4935,-1.4935,0,-1.5288,-1.5268,-1.5246,-1.5231,-1.5208,-1.5193,-1.517,-1.5156,-1.5136,-1.5117,-1.5106,-1.5088,-1.5067,-1.5045,-1.5031,-1.5003,-1.4997,-1.4988,-1.4984,-1.4988,-1.4989,-1.4978,-1.4979,-1.4978,-1.4979,-1.4979,-1.4979,0,-1.5307,-1.5273,-1.5249,-1.5239,-1.5209,-1.5198,-1.5185,-1.5163,-1.5148,-1.5126,-1.5116,-1.5091,-1.5076,-1.5056,-1.5039,-1.5045,-1.5005,-1.5009,-1.4995,-1.4995,-1.4987,-1.4987,-1.4959,-1.4979,-1.4979,-1.4979,-1.4979,0,-1.5313,-1.5294,-1.5262,-1.5237,-1.5228,-1.5212,-1.5188,-1.517,-1.5147,-1.5138,-1.512,-1.5111,-1.5086,-1.5091,-1.5056,-1.5068,-1.5054,-1.5043,-1.5042,-1.5038,-1.5044,-1.5029,-1.5005,-1.5001,-1.5034,-1.5035,-1.5035,0,-1.5339,-1.5304,-1.5291,-1.5261,-1.5242,-1.5232,-1.5213,-1.5194,-1.5181,-1.5161,-1.5145,-1.5123,-1.5123,-1.5113,-1.5099,-1.5081,-1.5065,-1.5083,-1.5051,-1.505,-1.5057,-1.5035,-1.5036,-1.5013,-1.5041,-1.504,-1.504,0,-1.5358,-1.5324,-1.532,-1.5307,-1.5281,-1.5265,-1.5244,-1.522,-1.5207,-1.5187,-1.5168,-1.5136,-1.5135,-1.5119,-1.5109,-1.5094,-1.5075,-1.5094,-1.5093,-1.5091,-1.5043,-1.5043,-1.504,-1.5071,-1.5071,-1.507,-1.5044,0,-1.5368,-1.5349,-1.5337,-1.5311,-1.5296,-1.5277,-1.526,-1.5246,-1.5238,-1.5225,-1.5197,-1.5176,-1.515,-1.5141,-1.5133,-1.5106,-1.5108,-1.5106,-1.511,-1.5096,-1.5087,-1.5083,-1.5125,-1.5125,-1.5125,-1.5125,0,0,-1.5396,-1.5369,-1.5357,-1.5337,-1.5324,-1.5315,-1.5295,-1.5281,-1.5252,-1.5242,-1.5244,-1.5197,-1.518,-1.5147,-1.5141,-1.5131,-1.5124,-1.513,-1.5103,-1.51,-1.5098,-1.5089,-1.5085,-1.5125,-1.5125,-1.5125,-1.5124,0,-1.5397,-1.5384,-1.5366,-1.5351,-1.5329,-1.5316,-1.5312,-1.5288,-1.5278,-1.5252,-1.5243,-1.5224,-1.5187,-1.517,-1.5156,-1.5133,-1.5127,-1.5127,-1.512,-1.5103,-1.5101,-1.5099,-1.5089,-1.5086,-1.5124,-1.5124,-1.5124,0,-1.5412,-1.5395,-1.5385,-1.5356,-1.5342,-1.5322,-1.5322,-1.5302,-1.5287,-1.5277,-1.525,-1.5236,-1.5212,-1.5184,-1.5171,-1.5172,-1.5131,-1.5141,-1.5141,-1.5139,-1.5121,-1.5119,-1.5116,-1.5148,-1.5148,-1.5149,0,0,-1.5415,-1.5397,-1.5375,-1.5355,-1.5347,-1.5329,-1.5317,-1.5308,-1.5288,-1.528,-1.5263,-1.5242,-1.522,-1.5206,-1.5185,-1.5157,-1.515,-1.5145,-1.5144,-1.5143,-1.5141,-1.5123,-1.512,-1.5149,-1.5149,-1.5149,0,0,-1.5415,-1.5389,-1.5386,-1.5362,-1.5344,-1.5319,-1.5307,-1.5302,-1.5282,-1.5282,-1.5265,-1.5259,-1.5233,-1.5219,-1.5229,-1.5185,-1.5189,-1.5186,-1.5195,-1.5193,-1.5192,-1.5196,-1.5225,0,0,0,0,0,-1.5408,-1.5392,-1.539,-1.5383,-1.5347,-1.5321,-1.5316,-1.5303,-1.5306,-1.5296,-1.5281,-1.5275,-1.5221,-1.523,-1.5223,-1.5211,-1.5157,-1.5156,-1.5154,-1.5159,-1.5158,-1.5157,0,0,0,0,0,0,-1.5406,-1.5398,-1.539,-1.5365,-1.5357,-1.5321,-1.5323,-1.5319,-1.5306,-1.5306,-1.5279,-1.5274,-1.5262,-1.5232,-1.5226,-1.5216,-1.5227,-1.5157,-1.5155,-1.5154,-1.5159,-1.5158,-1.5157,0,0,0,0,0,-1.5403,-1.5397,-1.5342,-1.5365,-1.5358,-1.5337,-1.5324,-1.532,-1.531,-1.5286,-1.5282,-1.5301,-1.5262,-1.5256,-1.5229,-1.5219,-1.5231,-1.5229,-1.5156,-1.5155,-1.5154,-1.5158,0,0,0,0,0,0,-1.5402,-1.5393,-1.534,-1.5338,-1.5371,-1.5338,-1.5333,-1.5321,-1.5291,-1.5286,-1.5308,-1.5308,-1.5262,-1.5257,-1.5252,-1.5221,-1.5235,-1.5233,-1.5231,-1.5155,-1.5154,-1.5154,0,0,0,0,0,0,-1.5397,-1.5391,-1.5339,-1.5347,-1.5345,-1.534,-1.5335,-1.531,-1.529,-1.5314,-1.5313,-1.5308,-1.5268,-1.5258,-1.5254,-1.5216,-1.5237,-1.5235,-1.5234,-1.5233,-1.5154,-1.5154,0,0,0,0,0,0,-1.5394,-1.5389,-1.5347,-1.5346,-1.5344,-1.5312,-1.5318,-1.528,-1.5299,-1.5316,-1.53,-1.53,-1.5269,-1.5265,-1.5255,-1.5219,-1.5216,-1.5237,-1.5236,-1.5235,-1.5234,0,0,0,0,0,0,0,-1.5392,-1.5427,-1.5357,-1.5345,-1.5344,-1.5312,-1.5311,-1.531,-1.5299,-1.5299,-1.53,-1.53,-1.525,-1.5248,-1.5245,-1.5221,0,0,-1.5238,-1.5237,0,0,0,0,0,0,0,0,-1.5429,-1.5428,-1.5357,-1.5357,-1.5356,-1.5312,-1.5311,-1.531,-1.5299,-1.5299,-1.53,-1.53,-1.5249,-1.5247,-1.5245,0,0,0,0,0,0,0,0,0,0,0,0,0,0,0,-1.5357,-1.5357,0,-1.5312,-1.5311,-1.5311,-1.5299,-1.5299,-1.53,-1.53,-1.5249,-1.5247,-1.5246,0,0,0,0,0,0,0,0,0,0,0,0,0,0,0,0,0,0,0,0,0,0,0,0,0,0,0,0,0,0,0,0,0,0,0,0,0,0,0,0,0,0,0,0,0,0,0,0,0,0,0,0,0,0,0,0,0,0,0,0,0,0,0,0,0,0,0,0,0]}],[{"header":{"parameterUnit":"kt","parameterCategory":2,"dx":1,"dy":1,"la1":30.253999710083008,"la2":30.299108505249023,"lo1":-89.0895004272461,"lo2":-89.04439544677734,"nx":28,"ny":28,"refTime":"2022-09-28T21:00:00:Z","depth":0,"parameterNumber":2,"parameterNumberName":"V-component_of_WINDS"},"data":[-9.6266,-9.6324,-9.6334,-9.6403,-9.6424,-9.6472,-9.6492,-9.6519,-9.6542,-9.6598,-9.6632,-9.6645,-9.6669,-9.6709,-9.6744,-9.6748,-9.6763,-9.6778,-9.6781,-9.6709,-9.6699,-9.669,-9.6679,-9.6781,-9.6781,-9.6854,-9.6855,-9.6856,-9.6215,-9.6237,-9.6277,-9.6321,-9.6355,-9.6348,-9.6381,-9.6409,-9.6451,-9.6479,-9.6512,-9.6561,-9.66,-9.6619,-9.6657,-9.6682,-9.6679,-9.6692,-9.6691,-9.6694,-9.6618,-9.6606,-9.6694,-9.6694,-9.6693,-9.6693,-9.6693,-9.6693,-9.6127,-9.6161,-9.6194,-9.6237,-9.6261,-9.629,-9.6323,-9.6339,-9.6376,-9.6418,-9.642,-9.6466,-9.6494,-9.6542,-9.6559,-9.6594,-9.6581,-9.6597,-9.6601,-9.6605,-9.661,-9.6506,-9.66,-9.66,-9.66,-9.66,-9.66,0,-9.6066,-9.6072,-9.611,-9.6151,-9.6182,-9.6213,-9.6243,-9.6263,-9.6275,-9.6304,-9.6346,-9.6372,-9.6421,-9.646,-9.6496,-9.6511,-9.6503,-9.6502,-9.6513,-9.6515,-9.6512,-9.6516,-9.6392,-9.6499,-9.6498,-9.6497,-9.6497,-9.6497,-9.5979,-9.6016,-9.6053,-9.6079,-9.6097,-9.6137,-9.6162,-9.6169,-9.6195,-9.6231,-9.6259,-9.6298,-9.6331,-9.6394,-9.6408,-9.6444,-9.644,-9.6481,-9.6445,-9.6446,-9.6443,-9.6441,-9.6446,-9.6488,-9.6489,-9.649,-9.649,0,-9.5929,-9.5944,-9.6003,-9.6036,-9.6045,-9.6083,-9.6109,-9.6141,-9.6152,-9.6197,-9.6208,-9.6223,-9.6263,-9.6271,-9.6317,-9.6319,-9.638,-9.6375,-9.6372,-9.6372,-9.641,-9.6407,-9.6529,-9.6546,-9.6439,-9.644,-9.6441,0,-9.5861,-9.5908,-9.5927,-9.5961,-9.6014,-9.602,-9.6072,-9.6086,-9.611,-9.6146,-9.6139,-9.6172,-9.6176,-9.621,-9.6214,-9.6264,-9.6272,-9.6277,-9.6278,-9.6279,-9.6279,-9.6292,-9.6288,-9.6276,-9.6275,-9.6275,-9.6274,0,-9.5783,-9.5847,-9.5902,-9.5919,-9.5956,-9.5981,-9.5998,-9.6024,-9.6047,-9.6078,-9.6093,-9.6127,-9.6146,-9.6172,-9.6178,-9.6154,-9.6239,-9.6207,-9.6244,-9.6245,-9.6263,-9.6262,-9.6368,-9.6273,-9.6273,-9.6273,-9.6273,0,-9.573,-9.5764,-9.5841,-9.5872,-9.5889,-9.5923,-9.596,-9.5991,-9.6019,-9.6024,-9.6048,-9.6044,-9.6087,-9.6056,-9.6116,-9.6084,-9.6103,-9.6111,-9.6114,-9.6119,-9.6084,-9.6144,-9.6243,-9.6254,-9.6123,-9.6122,-9.6121,0,-9.5638,-9.5719,-9.5725,-9.5797,-9.5835,-9.5827,-9.5865,-9.5889,-9.59,-9.5932,-9.5943,-9.5979,-9.5956,-9.5968,-9.5997,-9.6009,-9.605,-9.6003,-9.6049,-9.605,-9.6044,-9.6135,-9.6149,-9.622,-9.6105,-9.6107,-9.6108,0,-9.5569,-9.5615,-9.5627,-9.5647,-9.5681,-9.5711,-9.5755,-9.5793,-9.5815,-9.5841,-9.5878,-9.5927,-9.5913,-9.5932,-9.5932,-9.5961,-9.6022,-9.5941,-9.5942,-9.5957,-9.6097,-9.611,-9.6122,-9.6015,-9.6017,-9.6019,-9.6095,0,-9.5489,-9.553,-9.5563,-9.5605,-9.563,-9.5674,-9.5684,-9.5708,-9.5707,-9.5717,-9.5769,-9.5788,-9.5824,-9.5838,-9.5835,-9.59,-9.5891,-9.5874,-9.5844,-9.5903,-9.5928,-9.5938,-9.5805,-9.5804,-9.5804,-9.5803,0,0,-9.5398,-9.5457,-9.5462,-9.5505,-9.5527,-9.5516,-9.5563,-9.5581,-9.5619,-9.5634,-9.5617,-9.569,-9.5705,-9.5767,-9.5786,-9.58,-9.5812,-9.5791,-9.5874,-9.5882,-9.5889,-9.5917,-9.5927,-9.5802,-9.5802,-9.5801,-9.5801,0,-9.5372,-9.5392,-9.5438,-9.5459,-9.549,-9.5498,-9.5509,-9.5536,-9.5545,-9.5595,-9.5584,-9.5616,-9.5672,-9.5691,-9.5708,-9.5784,-9.5773,-9.5793,-9.5833,-9.5866,-9.5875,-9.5883,-9.5912,-9.5922,-9.5799,-9.5799,-9.5799,0,-9.5307,-9.5328,-9.5351,-9.54,-9.5419,-9.5457,-9.5429,-9.5469,-9.5497,-9.548,-9.553,-9.5541,-9.5566,-9.5623,-9.5648,-9.5634,-9.5737,-9.5704,-9.5709,-9.5712,-9.5745,-9.5756,-9.5765,-9.5641,-9.564,-9.5639,0,0,-9.5282,-9.532,-9.5344,-9.5395,-9.5408,-9.542,-9.544,-9.5441,-9.5465,-9.5475,-9.5489,-9.5512,-9.5544,-9.5566,-9.5596,-9.5657,-9.5662,-9.5684,-9.5692,-9.5698,-9.5704,-9.5739,-9.5749,-9.5637,-9.5637,-9.5637,0,0,-9.5269,-9.5301,-9.5295,-9.5356,-9.5381,-9.5406,-9.5436,-9.5429,-9.5458,-9.5454,-9.5454,-9.5459,-9.5512,-9.5523,-9.5493,-9.5586,-9.5555,-9.5562,-9.5577,-9.5586,-9.5594,-9.559,-9.5465,0,0,0,0,0,-9.5248,-9.5297,-9.5292,-9.5304,-9.5362,-9.5409,-9.5417,-9.5419,-9.5399,-9.5423,-9.5434,-9.542,-9.5507,-9.5481,-9.5492,-9.5524,-9.561,-9.5614,-9.5619,-9.5652,-9.5662,-9.567,0,0,0,0,0,0,-9.5252,-9.5266,-9.5291,-9.5318,-9.5331,-9.5407,-9.5374,-9.5376,-9.5396,-9.5393,-9.5419,-9.5421,-9.5422,-9.5476,-9.5485,-9.5517,-9.5462,-9.5611,-9.5616,-9.5619,-9.5655,-9.5664,-9.5671,0,0,0,0,0,-9.5256,-9.5267,-9.5361,-9.5317,-9.5329,-9.5345,-9.5372,-9.5373,-9.5389,-9.5405,-9.5407,-9.5389,-9.5423,-9.5431,-9.5482,-9.5512,-9.5456,-9.5459,-9.5614,-9.5617,-9.562,-9.5659,0,0,0,0,0,0,-9.5259,-9.5268,-9.5364,-9.5367,-9.5299,-9.534,-9.5347,-9.5371,-9.54,-9.5402,-9.5375,-9.5373,-9.5424,-9.543,-9.5436,-9.5511,-9.545,-9.5454,-9.5456,-9.5617,-9.5619,-9.5622,0,0,0,0,0,0,-9.5262,-9.5271,-9.5365,-9.5342,-9.5343,-9.5336,-9.5342,-9.5384,-9.54,-9.5368,-9.5367,-9.5374,-9.5414,-9.543,-9.5435,-9.55,-9.5446,-9.545,-9.5452,-9.5453,-9.5619,-9.5621,0,0,0,0,0,0,-9.5266,-9.5274,-9.5341,-9.5342,-9.5343,-9.5382,-9.5373,-9.5433,-9.5382,-9.5367,-9.5378,-9.5376,-9.5414,-9.5419,-9.5434,-9.5497,-9.55,-9.5446,-9.5449,-9.545,-9.5451,0,0,0,0,0,0,0,-9.5269,-9.5216,-9.5343,-9.5342,-9.5342,-9.54,-9.5401,-9.5402,-9.5382,-9.538,-9.5378,-9.5377,-9.5427,-9.5431,-9.5435,-9.5495,0,0,-9.5446,-9.5448,0,0,0,0,0,0,0,0,-9.5212,-9.5215,-9.5343,-9.5344,-9.5345,-9.54,-9.5401,-9.5401,-9.5382,-9.538,-9.5379,-9.5377,-9.5428,-9.5431,-9.5434,0,0,0,0,0,0,0,0,0,0,0,0,0,0,0,-9.5343,-9.5344,0,-9.54,-9.5401,-9.5401,-9.5381,-9.538,-9.5379,-9.5378,-9.5429,-9.5431,-9.5434,0,0,0,0,0,0,0,0,0,0,0,0,0,0,0,0,0,0,0,0,0,0,0,0,0,0,0,0,0,0,0,0,0,0,0,0,0,0,0,0,0,0,0,0,0,0,0,0,0,0,0,0,0,0,0,0,0,0,0,0,0,0,0,0,0,0,0,0,0]}]]]